Regional Weather Roundup
Issued by NWS Wakefield, VA

Current Version | Previous Version | Text Only | Print | Product List | Glossary On
Versions: 1 2 3 4 5 6 7 8 9 10 11 12 13 14 15 16 17 18 19 20 21 22 23 24 25 26 27 28
000
ASUS41 KAKQ 201015
RWRAKQ

REGIONAL WEATHER ROUNDUP
NATIONAL WEATHER SERVICE WAKEFIELD VA
500 AM EST MON FEB 20 2017

Note: "fair" indicates few or no clouds below 12,000 feet with no
significant weather and/or obstructions to visibility. * = Denotes
station may not report precipitation (e.g., rain,snow,etc.),
thunder or fog.

VAZ042-051-052>054-056-201100-
NORTHERN VIRGINIA

CITY           SKY/WX    TMP DP  RH WIND       PRES   REMARKS
WASH NATIONAL  CLEAR     47  42  83 CALM      30.14R
DULLES         CLEAR     45  39  79 NW6       30.13R
FORT BELVOIR   CLEAR     40  37  89 CALM      30.13R
QUANTICO       CLEAR     41  40  96 CALM      30.15R
FREDERICKSBRG* CLEAR     39  37  91 CALM      30.14R
STAFFORD*      CLEAR     36  35  96 CALM      30.18R
WARRENTON      CLEAR     33  30  88 CALM      30.13R
CULPEPER*      CLEAR     35  33  93 CALM      30.15R
MANASSAS*      PTCLDY    38  36  92 SE3       30.14R
LEESBURG*      CLEAR     48  45  87 MISG      30.14S
WINCHESTER     CLEAR     46  37  71 W5        30.14S
FRONT ROYAL*   SUNNY     46  37  71 S3        30.14R
LURAY*         SUNNY     37  36  93 SW5       30.17R
$$

VAZ048-049-060>072-079>083-201100-
CENTRAL AND SOUTH CENTRAL VIRGINIA

CITY           SKY/WX    TMP DP  RH WIND       PRES   REMARKS
RICHMOND       PTCLDY    47  39  74 NE8       30.14R
CHESTERFIELD*  FAIR      37  21  52 CALM      30.16R
PETERSBURG*    CLEAR     34  32  94 CALM      30.15R
HANOVER        CLEAR     39  34  82 CALM      30.16R
TAPPAHANNOCK*  CLEAR     44  33  64 CALM      30.15R
QUINTON*       FAIR      54  41  62 MISG      30.14R
CHARLOTTSVILLE CLEAR     53  36  52 SW5       30.14R
GORDONSVILLE*  SUNNY     35  33  92 CALM      30.14R
ORANGE*        CLEAR     34  32  93 CALM      30.16R
LOUISA*        CLEAR     39  37  93 CALM      30.13R
BUMPASS*       FAIR      38  36  92 CALM      30.14R
FARMVILLE*     CLEAR     35  35 100 CALM      30.14R FOG
CREWE*         FAIR      39  39 100 CALM      30.14R
FORT PICKETT*  FAIR      45  37  72 N5        30.14R
CHASE CITY*    FAIR      42  40  95 NW3       30.15R
CLARKSVILLE*   FAIR      45  41  87 CALM      30.15R
SOUTH HILL*    CLEAR     41  40  97 CALM      30.20R
LAWRENCEVILLE* FAIR      42  40  93 CALM      30.15R
EMPORIA*       CLEAR     36  36 100 CALM      30.16R
$$

VAZ088>098-201100-
SOUTHEAST VIRGINIA

CITY           SKY/WX    TMP DP  RH WIND       PRES   REMARKS
NORFOLK        CLEAR     54  42  64 NW6       30.11R
VIRGINIA BEACH PTCLDY    48  39  71 NW7       30.11R
NORFOLK NAVAL  PTCLDY    51  42  71 NW5       30.13R
WEST POINT*    CLEAR     46  39  77 CALM      30.16R
SALUDA*        FAIR      52  44  74 NW7       30.13R
NEWPORT NEWS   CLEAR     55  41  59 N14G21    30.12R
LANGLEY AFB    CLEAR     54  42  64 NW9       30.11R
FORT EUSTIS    CLEAR     54  42  63 N9        30.10R
WILLIAMSBURG*  CLEAR     55  43  62 N10       30.14R
HR EXEC AP*    FAIR      41  37  87 NW3       30.11R
FRANKLIN*      CLEAR     40  38  94 CALM      30.14R
US460-WAKEFLD  CLEAR     54  41  61 N8        30.13R
$$

VAZ020-022-025-037-045-201100-
WEST CENTRAL AND SOUTHWEST VIRGINIA

CITY           SKY/WX    TMP DP  RH WIND       PRES   REMARKS
STAUNTON*      CLEAR     27  25  92 CALM      30.20R
WAYNESBORO*    SUNNY     36  34  91 CALM      30.17S
HOT SPRINGS VA CLEAR     43  32  65 NW12      30.18R
LYNCHBURG      CLEAR     38  34  85 CALM      30.17R
DANVILLE       CLEAR     37  37 100 SW3       30.16R
SOUTH BOSTON*  FAIR      38  37  95 CALM      30.16R
MARTINSVILLE   PTCLDY    35  33  94 CALM      30.18R
ROANOKE        CLEAR     40  36  86 VRB5      30.21R
BLACKSBURG     CLEAR     35  35  99 CALM      30.23R
DUBLIN*        CLOUDY    40  37  90 S6        30.22R
MARION*        CLOUDY    41  40  96 W6        30.22S
HILLSVILLE*    CLOUDY    45  42  90 CALM      30.19R
RICHLANDS*     FAIR      44  42  93 SE3       30.20R
WISE*          PTCLDY    48  41  76 CALM      30.20F
ABINGDON*      FOG       38  38  99 E5        30.21R VSB 1
$$

MDZ021>025-VAZ099-100-201100-
SOUTHERN MARYLAND AND THE DELMARVA PENINSULA

CITY           SKY/WX    TMP DP  RH WIND       PRES   REMARKS
PATUXENT RIVER CLEAR     50  43  77 NW9       30.12R
BAY BRIDGE APT CLEAR     46  41  81 CALM      30.13R
LEONARDTOWN    CLEAR     50  41  71 W3        30.14R
DOVER          CLEAR     46  41  83 W7        30.10R
GEORGETOWN     CLEAR     44  39  82 CALM      30.11R
EASTON         CLEAR     47  41  77 NW5       30.16R
CAMBRIDGE      CLEAR     45  39  81 NW6       30.12R
SALISBURY      CLEAR     49  42  77 NW7       30.10R
OCEAN CITY     CLEAR     48  40  73 NW8       30.10R
WALLOPS ISLAND CLEAR     50  43  77 NW8       30.10R
ACCOMACK*      CLEAR     50  42  75 N9        30.09R
$$

NCZ012>017-030>032-201100-
NORTH CENTRAL AND EASTERN NORTH CAROLINA

CITY           SKY/WX    TMP DP  RH WIND       PRES   REMARKS
ROANOKE RAPIDS FAIR      43  41  93 CALM      30.14R
RALEIGH        CLEAR     46  40  79 CALM      30.15R
ELIZABETH CITY CLEAR     42  39  89 NW5       30.12R
AHOSKIE*         N/A     39  37  93 CALM      30.14R
EDENTON*       CLEAR     48  43  83 N3        30.13R
CURRITUCK*     CLEAR     49  44  81 NW3       30.12R
KILL DEVIL HLS NOT AVBL
MANTEO         CLEAR     51  47  86 N7        30.10R
CAPE HATTERAS  CLEAR     52  48  86 N6        30.09R
TARBORO*       NOT AVBL
GOLDSBORO      CLEAR     48  45  88 CALM      30.13R
WASHINGTON     CLEAR     47  42  83 N3        30.13R
GREENVILLE     CLEAR     43  36  75 CALM      30.15R
NEW BERN       CLEAR     47  43  86 CALM      30.13R
WILMINGTON     CLEAR     49  45  86 NW3       30.13R
$$

VAZ048-201100-
ELSEWHERE

CITY           SKY/WX    TMP DP  RH WIND       PRES   REMARKS
HARRISBURG PA  CLEAR     46  31  55 N7        30.12R
BALTIMORE      CLEAR     44  39  82 CALM      30.12R
ANNAPOLIS      CLEAR     43  40  89 CALM      30.12R
ANDREWS AFB    CLEAR     50  41  73 NW8       30.12R
PHILADELPHIA   CLEAR     47  32  56 N9        30.11R
HENDERSON NC   CLEAR     46  37  73 CALM      30.15R
GREENSBORO     CLEAR     43  40  89 CALM      30.14R
ROCKY MOUNT    CLEAR     47  42  83 N3        30.14R
$$

VAZ100-201100-
MARINE

STATION/POSITION TIME  TEMP    WIND        PRES    WAVE   SWELL
                       AIR SEA DIR/SP/G            HT/PER HT/PER
                 (UTC) (F)     (DEG/KT/KT) (MB)    (FT/S) (FT/S)
CAPE MAY NJ      0942   44 41  340/  1/  4 1018.8R
LEWES DE         0942   45 42  340/  4/  5 1019.2R
OCEAN-CITY-INLET 0948          340/  8/  9   N/A
WACHAPREAGUE VA  0942   51 47  320/  3/ 13 1018.9R
THOMAS POINT MD  1000   52 41  340/  8/  8   N/A
GOOSES REEF MD   0950   47     310/  6/  8 1020.6R
COVE POINT MD    0942   54     330/ 15/ 19 1020.3R
SOLOMONS ISLAND  0948          310/  3/  7   N/A
BISHOPS HEAD MD  0942   49 45  300/  9/ 11 1019.8R
PINEY POINT MD   0948          360/  8/  8   N/A
POTOMAC MD       0950   47     320/ 10/ 12 1019.0R
CAMBRIDGE MD     0942   50 40  290/  7/ 10 1019.1R
LEWISETTA VA     0942   55 45  340/ 11/ 16 1019.8R
RAPPAHANNOCK LGT 0948          300/  9/ 10 1019.9R
YORK RVR RNG VA  0942   54     340/ 17/ 18 1018.8R
YORKTOWN VA      0942   51 44  310/ 13/ 14 1019.5R
JAMESTOWN VA     0950   55     320/ 10/ 14   N/A
DOMINION TERM VA 0942   56     320/  4/  6 1019.8R
KIPTOPEKE VA     0948      45  350/ 10/ 13   N/A
CHES BAY BRIDGE  0936   51 45  310/  5/  7 1019.4R
CAPE HENRY VA    0936   52     290/  9/ 11   N/A
WILLOUBY STN VA  0936   56     320/ 10/ 12 1020.4R
S CRANEY ISL VA  0936   54     310/  4/  7 1019.4R
CAPE HENRY BUOY  0942      47                N/A     1/ 7
OFFSHORE WE BUOY 0951      47                N/A     1/ 7
64NM E OF VA BCH 0950   52 51  320/ 10/ 10 1017.8R   1/ 8   2/ 8
DUCK PIER NC     0936   55 47  330/ 12/ 13 1018.4R
44100 DUCK FRF   0935      48                N/A     1/ 7
44056 DUCK FRF   0930      49                N/A     1/ 8
OREGON INLET NC  0948          320/  5/  6   N/A
HATTERAS NC      0936   54 56  290/  4/  5 1018.0R
DIAMOND SHLS NC  0950   63 65  340/  8/  8 1018.4R   1/ 6   2/ 6
CAPE LOOKOUT NC  0900   56     310/  6/  7 1017.6R
$$




USA.gov is the U.S. government's official web portal to all federal, state and local government web resources and services.